This demonstration page uses our WeatherBlox Daily Observations layout. Learn more.

Left ArrowRight Arrow

38.20091, -84.87328

Hourly Observations for April 16, 2022

Temp ( °F °C ) Dew Point ( °F °C ) Humidity (%) Winds ( mph kmh ) Pressure ( in mb ) Visibility ( mi km ) Precip ( " mm )
12:53 am 00:53 Cloudy with Light Rain 60 15.6 42 5.6 52 52 WSW 18 30 30.04 1017 10 16 0.01 0.25
1:53 am 01:53 Cloudy with Light Rain 54 12.2 47 8.3 77 77 SSW 17 28 30.03 1017 10 16 0.10 2.54
2:53 am 02:53 Cloudy 53 11.7 48 8.9 83 83 S 5 7 29.98 1015 10 16 0.00 0.00
3:53 am 03:53 Partly Cloudy 51 10.6 47 8.3 86 86 SE 3 6 29.96 1015 10 16 0.00 0.00
4:53 am 04:53 Mostly Clear 51 10.6 46 7.8 83 83 SSE 5 7 29.97 1015 10 16 0.00 0.00
5:53 am 05:53 Mostly Clear 51 10.6 46 7.8 83 83 S 5 7 29.97 1015 10 16 0.00 0.00
6:53 am 06:53 Clear 51 10.6 46 7.8 83 83 S 6 9 29.95 1014 10 16 0.00 0.00
7:53 am 07:53 Sunny 53 11.7 48 8.9 83 83 S 6 9 29.98 1015 10 16 0.00 0.00
8:53 am 08:53 Cloudy 54 12.2 48 8.9 80 80 WSW 5 7 30.02 1017 10 16 0.00 0.00
9:53 am 09:53 Cloudy 55 12.8 49 9.4 80 80 WSW 6 9 30.03 1017 10 16 0.00 0.00
10:41 am 10:41 Cloudy 57 13.9 51 10.6 81 81 WSW 7 11 30.04 1017 10 16 0.00 0.00
10:50 am 10:50 Cloudy 57 14 52 11 82 82 W 7 11 30.04 1017 10 16 0.00 0.00
10:53 am 10:53 Cloudy 58 14.4 51 10.6 78 78 WSW 7 11 30.03 1017 10 16 0.00 0.00
11:06 am 11:06 Cloudy 57 13.9 50 10 78 78 W 8 13 30.03 1017 10 16 0.00 0.00
11:42 am 11:42 Mostly Cloudy 61 16.1 52 11.1 72 72 WSW 8 13 30.02 1017 10 16 0.00 0.00
11:53 am 11:53 Mostly Cloudy 61 16.1 52 11.1 72 72 W 9 15 30.02 1017 10 16 0.00 0.00
12:53 pm 12:53 Mostly Cloudy 63 17.2 51 10.6 65 65 WSW 10 17 30.02 1017 10 16 0.00 0.00
1:53 pm 13:53 Mostly Cloudy 64 17.8 50 10 60 60 W 8 13 30.01 1016 10 16 0.00 0.00
2:53 pm 14:53 Mostly Cloudy 65 18.3 49 9.4 56 56 W 8 13 30.00 1016 10 16 0.00 0.00
3:53 pm 15:53 Cloudy 66 18.9 49 9.4 54 54 NW 10 17 29.99 1016 10 16 0.00 0.00
4:53 pm 16:53 Mostly Cloudy 66 18.9 49 9.4 54 54 NW 9 15 29.99 1016 10 16 0.00 0.00
5:53 pm 17:53 Mostly Cloudy 66 18.9 47 8.3 50 50 W 8 13 29.99 1016 10 16 0.00 0.00
6:53 pm 18:53 Sunny 65 18.3 44 6.7 47 47 WNW 12 19 30.00 1016 10 16 0.00 0.00
7:53 pm 19:53 Sunny 62 16.7 36 2.2 38 38 WNW 9 15 30.02 1017 10 16 0.00 0.00
8:53 pm 20:53 Clear 59 15 34 1.1 39 39 WNW 5 7 30.05 1018 10 16 0.00 0.00
9:53 pm 21:53 Clear 57 13.9 31 -0.6 37 37 WNW 7 11 30.07 1018 10 16 0.00 0.00
10:53 pm 22:53 Clear 52 11.1 32 0 47 47 NNW 6 9 30.11 1020 10 16 0.00 0.00
11:53 pm 23:53 Clear 51 10.6 28 -2.2 41 41 NNW 7 11 30.11 1020 10 16 0.00 0.00

Powered by AerisWeather